Regional Weather Roundup
Issued by NWS

Home | Current Version | Previous Version | Text Only | Print | Product List | Glossary On
Versions: 1 2 3 4 5 6 7 8 9 10 11 12 13 14 15 16 17 18 19 20 21 22 23 24 25 26 27 28 29 30 31 32 33 34 35 36 37 38 39 40 41 42 43 44 45 46 47 48 49 50
000
ASUS43 KLSX 161307
RWRMO

WEATHER SUMMARY FOR MISSOURI
NATIONAL WEATHER SERVICE SPRINGFIELD MO
700 AM CST TUE JAN 16 2018

NOTE: "FAIR" INDICATES FEW OR NO CLOUDS BELOW 12,000 FEET WITH NO
       SIGNIFICANT WEATHER AND/OR OBSTRUCTIONS TO VISIBILITY.
       CURRENT SKY AND/OR WEATHER CONDITIONS ARE NOT AVAILABLE FOR
       CHILLICOTHE AND FARMINGTON.

MOZ001>031-035>038-043-044-053-054-161400-
...NORTHERN AND WESTERN MISSOURI...

CITY           SKY/WX    TMP DP  RH WIND       PRES   REMARKS
KANSAS CTY INT MOCLDY    -4 -10  75 NW9       30.71R WCI -20
KANSAS C DTWN  CLEAR     -1  -9  68 NW9       30.75R WCI -16
LEE`S SUMMIT   PTCLDY    -3 -10  72 NW10      30.71R WCI -20
ST JOSEPH        N/A    N/A N/A N/A MISG      30.75R
CHILLICOTHE      N/A     -4 -12  68 NW7       30.70S WCI -18
KIRKSVILLE     CLEAR     -7 -11  83 NW10      30.63R WCI -25

$$
MOZ066>068-077>081-088>096-101>105-161400-
...SOUTHWEST MISSOURI...

CITY           SKY/WX    TMP DP  RH WIND       PRES   REMARKS
SPRINGFIELD    CLOUDY    -4 -10  75 NW5       30.67R WCI -15
JOPLIN         CLOUDY    -4  -9  79 W6        30.75R WCI -16
BRANSON        PTCLDY     0  -8  71 NW10G18   30.68S WCI -17

$$
MOZ032>034-039>042-045>050-055>058-069>072-161400-
...CENTRAL MISSOURI...

CITY           SKY/WX    TMP DP  RH WIND       PRES   REMARKS
COLUMBIA       PTCLDY    -4 -10  75 NW9       30.66R WCI -20
JEFFERSON CITY PTCLDY    -2 -10  69 W8        30.72R WCI -17
ROLLA          PTCLDY    -5 -10  79 W8        30.64R WCI -20
SEDALIA        PTCLDY    -3  -9  75 NW9       30.70R WCI -19
WHITEMAN AFB   CLEAR     -4 -13  67 NW8       30.66R WCI -19
WARRENSBURG    CLEAR     -4  -9  77 NW8       30.73R WCI -19
OSAGE BEACH    CLOUDY    -3  -9  75 NW7       30.71R WCI -16

$$
MOZ051-052-059>065-161400-
...EAST CENTRAL MISSOURI...

CITY           SKY/WX    TMP DP  RH WIND       PRES   REMARKS
ST LOUIS INTL  PTCLDY     0  -8  69 W13G21    30.65R WCI -18
SPIRIT OF STL  PTCLDY    -1  -8  72 W7        30.68R WCI -14
ST CHARLES     PTCLDY     0  -8  69 W13       30.67R WCI -18

$$
MOZ072>076-082>087-097>100-106>115-161400-
...SOUTH CENTRAL AND SOUTHEAST MISSOURI...

CITY           SKY/WX    TMP DP  RH WIND       PRES   REMARKS
CAPE GIRARDEAU FAIR       3  -4  72 N6        30.68R WCI  -8
FARMINGTON     FAIR      -1  -7  75 NW10      30.62S WCI -17
POPLAR BLUFF   FAIR       5  -6  60 NW7       30.70R WCI  -7
WEST PLAINS    CLOUDY    -3  -9  75 W5        30.65R WCI -13

$$



USA.gov is the U.S. government's official web portal to all federal, state and local government web resources and services.